Skip Navigation Links
NOAA logo - Click to go to the NOAA homepage
NOAA's National Weather Service
Alaska Aviation Weather Unit
  NWS logo - Click to go to the NWS homepage
Left Navbar Graphic     08 AKDT = 16 GMT

   
NOAA is celebrating 200 years of science, service, and stewardship. Visit the NOAA 200th celebration Web site to learn more.
USA.gov is the U.S. Government's official Web portal to all Federal, state and local government Web resources and services.
Facebook
NWS on Facebook

Important Change Regarding the AAWU Web Presence

 

Over the last several months, the AAWU has been working to navigate its webpages to a nationally supported server. Security, as well as other needs, have necessitated the change.  In the process, we have made an effort to enhance the functionality of our website, as well as some of our products. As of June 20, 2017, aawu.arh.noaa.gov will be discontinued. The new AAWU web address is weather.gov/aawu. It is now live and will run in-parallel with the old site until it is discontinued. Please send any feedback or questions regarding the new webpages to nws.ar.aawu.webauthors@noaa.gov.  Thank you for your patience during this time of transition.
AAWU Home :: Display TAF Add Bookmark
TAF CYYE 291238Z 2913/3001 VRB03KT P6SM SCT220
     BECMG 2916/2918 12008KT
    FM292100 12008KT P6SM FEW090 SCT160
    RMK NXT FCST BY 291900Z=

METAR CYYE 291000Z 30002KT 15SM SCT240 10/05 A3002 RMK CI3 SLP173= METAR CYYE 291100Z 28002KT 20SM SCT240 09/05 A3002 RMK CI3 SLP172= METAR CYYE 291200Z 26003KT 20SM SCT220 08/05 A3002 RMK CI3 SLP173= METAR CYYE 291300Z 00000KT 30SM FEW220 10/06 A3002 RMK CI2 SLP171= METAR CYYE 291400Z VRB02KT 30SM FEW220 12/06 A3002 RMK CI2 SLP170= METAR CYYE 291500Z 15003KT 080V200 30SM SCT250 14/06 A3001 RMK CI4 CONTRAILS SLP167 DENSITY ALT 1300FT= METAR CYYE 291600Z 00000KT 30SM BKN250 17/07 A3000 RMK CI5 SLP165 DENSITY ALT 1600FT=
 Alaska TAF Map

NOAA's National Weather Service
Alaska Aviation Weather Unit
6930 Sand Lake Road
Anchorage, AK 99502-1845
Disclaimer
Credits
Glossary
Privacy Policy
About Us
Career Opportunities
Contact AAWU Internet Services Site last modified: April, 17th 2012